www.pogodaiklimat.ru

Погода и климат >> Архив погоды >> Россия >> Ямало-Ненецкий АО >> Надым


АРХИВ ПОГОДЫ в Надыме

Время (UTC), дата Ветер
(напр.,м/с)
 
Видим.   Явления Облачность Т
(С)
Тd
(С)
f
(%)
Тe
(С)
Тes
(С)
Комфортность P
(гПа)
Po
(гПа)
Тmin
(С)
Tmax
(С)
R
(мм)
R24
(мм)
S
(см)
00 18.03 Ю 1 10 км 10/0
[Ac und]
-15.4 -19.1 73 -18 -18 1025.6 1023.7
03 18.03 ЮВ 2 10 км 10/0
[Ac und]
-12.8 -17.8 66 -17 -17 1024.9 1023.1 -20.8 105
06 18.03 Ю 1 10 км 10/4 1200 м
[Sc Ac und]
-6.4 -13.9 55 -8 -8 1024.3 1022.5
09 18.03 Ю 2 10 км 8/0
[Ac trans]
-2.2 -12.4 45 -5 -4 1023.5 1021.7
12 18.03 Ю 1 10 км 9/9 1200 м
[Sc]
-4.1 -10.2 62 -6 -6 1022.7 1020.9
15 18.03 Ю 1 10 км 6/0
[Ac trans Ci fib]
-6.9 -9.5 82 -9 -9 1023.0 1021.2 -2.2
18 18.03 ЮЗ 2 10 км 6/0
[Ac trans Ci fib]
-8.7 -10.6 86 -13 -13 1022.6 1020.8
21 18.03 ЮЗ 1 10 км 9/0
[Ac trans]
-11.4 -12.7 90 -14 -14 1023.0 1021.1
00 19.03 ЮЗ 1 10 км 6/0
[Ac trans Ci fib]
-11.3 -12.3 92 -14 -14 1023.7 1021.8
03 19.03 Ю 2 10 км 8/0
[Ac trans Ci fib]
-10.7 -12.0 90 -15 -15 1024.3 1022.4 -11.9 104
06 19.03 Ю 1 10 км 8/0
[Ci fib]
-4.3 -8.7 71 -6 -3 1024.6 1022.8
09 19.03 ЮЗ 2 10 км 4/0
[Ci fib]
-0.2 -6.4 63 -3 -1 1024.2 1022.4
12 19.03 Ю 1 10 км 4/0
[Ci fib]
-1.8 -6.6 70 -4 -3 1023.9 1022.1
15 19.03 Ю 1 10 км 6/0
[Ci fib]
-5.5 -7.8 84 -8 -8 1023.6 1021.7 +0.1
18 19.03 Ю 1 10 км 4/0
[Ci fib]
-8.0 -9.3 90 -10 -10 1022.4 1020.5
21 19.03 Ю 1 10 км 6/6 1000 м
[Sc]
-6.3 -8.5 84 -9 -9 1021.1 1019.3
00 20.03 ЮВ 3 10 км 9/6 1500 м
[Sc Ac trans]
-3.2 -6.0 81 -8 -8 1018.5 1016.7
03 20.03 ЮВ 4 10 км 9/0
[Ac trans]
-2.5 -5.6 79 -8 -8 1016.3 1014.5 -8.4 103
06 20.03 Ю 3 10 км 10/0
[Ac und]
+0.7 -5.0 66 -3 -3 1013.7 1011.9
09 20.03 Ю 4
{11}
10 км 10/0
[Ac As]
+1.5 -6.1 57 -3 -2 1011.2 1009.5
12 20.03 Ю 3
{10}
10 км 10/0
[Ac As]
+1.8 -5.7 57 -2 -2 1008.9 1007.2
15 20.03 Ю 3 10 км 10/6 1000 м
[Sc Ac und]
+0.4 -5.4 65 -4 -4 1007.7 1006.0 +2.1
18 20.03 Ю 2 10 км слаб. ливневой снег 10/10 360 м
[Sc]
-0.3 -2.4 86 -4 -4 1006.9 1005.2
21 20.03 ЮЗ 2 10 км в посл. час ливневой снег 10/10 180 м
[St]
-0.1 -0.7 96 -4 -4 1006.3 1004.6
00 21.03 ЮЗ 1 10 км {ливн. осадки} 10/10 300 м
[Sc]
-0.2 -1.1 94 -2 -2 1005.9 1004.1
03 21.03 ЮЗ 2 10 км 10/5 450 м
[Cb cap Ac und]
+0.1 -1.1 92 -4 -4 1005.6 1003.8 -0.6 0.0 102
06 21.03 ЮЗ 2 н/о н/о +1.6 -1.5 80 -2 -2 1005.9 1004.2
09 21.03 ЮЗ 2 10 км 10/6 450 м
[Cb cap Ac und]
+1.5 -1.8 79 -2 -1 1006.5 1004.7
12 21.03 Ю 1 10 км 6/6 600 м
[Sc]
+2.2 -1.8 75 +1 +1 1006.5 1004.7
15 21.03 Ю 2 10 км 10/8 900 м
[Sc Ac und]
-0.0 -2.6 83 -4 -4 1006.3 1004.5 +2.9
18 21.03 ЮЗ 1 10 км 9/0
[Ac trans]
-1.2 -3.0 88 -3 -3 1006.2 1004.4
21 21.03 штиль 0 4000 м слаб. ливневой снег 10/6 300 м
[Cb cap Ac und]
-1.7 -2.4 95 -3 -3 1005.8 1004.0
00 22.03 З 1 10 км слаб. ливневой снег 10/5 600 м
[Cb cap Ac und]
-1.9 -2.5 96 -4 -4 1006.4 1004.6
03 22.03 З 1 10 км {ливн. осадки} 9/0
[Ac trans]
-2.5 -3.9 90 -5 -4 1008.1 1006.3 -3.1 1 100
06 22.03 ЮЗ 2 10 км {ливн. осадки} 3/0
[Ci fib]
-1.2 -5.1 75 -5 -1 1009.2 1007.5 -3.4
09 22.03 ЮЗ 2 10 км 8/0
[Ac trans Ci fib]
+0.7 -5.1 65 -2 0 1010.7 1009.0
12 22.03 ЮЗ 1 10 км слаб. снег 10/0
[Ac As]
-0.7 -5.3 71 -2 -2 1011.6 1009.8
15 22.03 Ю 1 10 км слаб. ливневой снег 8/5 500 м
[Cb cap Ac trans]
-2.2 -3.2 93 -5 -5 1012.5 1010.7 +1.4 0.7
18 22.03 ЮЗ 1 2000 м дымка {ливн. осадки, снег} 10/10 200 м
[St]
-7.3 -8.0 95 -10 -10 1013.7 1011.8
21 22.03 Ю 1 10 км 10/0
[Ac trans Ci fib]
-10.7 -11.6 93 -13 -13 1014.6 1012.7
00 23.03 Ю 1 10 км 10/0
[Ci fib]
-10.8 -11.9 92 -13 -13 1014.2 1012.4
03 23.03 ЮВ 3 10 км 9/0
[Ac trans]
-5.9 -7.7 87 -12 -11 1013.7 1011.9 -12.3 0.0 98
06 23.03 Ю 2 10 км 4/0
[Ac trans Ci fib]
-0.2 -6.1 64 -3 -0 1012.7 1010.9
09 23.03 ЮЗ 2 10 км 9/0
[Ac trans]
+1.7 -5.3 60 -1 +1 1012.4 1010.7
12 23.03 Ю 1 10 км в посл. час ливневой снег 9/6 420 м
[Cb cap Ac trans]
-0.0 -2.3 84 -2 -2 1012.4 1010.6
15 23.03 Ю 2 10 км слаб. ливневой снег 9/6 900 м
[Cb cap Ac trans]
-1.0 -2.5 90 -5 -5 1012.6 1010.8 +2.6 0.4
18 23.03 штиль 0 2000 м ливневой снег 10/6 600 м
[Cb cap Ac und]
-1.9 -2.6 95 -3 -3 1012.3 1010.5
21 23.03 штиль 0 10 км слаб. ливневой снег 10/5 300 м
[Cb cap Ac trans]
-4.5 -5.3 94 -6 -6 1012.7 1010.9
00 24.03 СЗ 2 2000 м дымка {ливн. осадки} 10/10 120 м
[St]
-6.1 -6.9 94 -11 -11 1013.9 1012.1
03 24.03 З 1 10 км 10/10 90 м
[St]
-6.2 -7.2 93 -9 -9 1014.8 1013.0 -6.4 2 100
06 24.03 Ю 1 10 км 10/10 100 м
[St]
-5.6 -7.1 89 -8 -8 1014.9 1013.1 -6.7
09 24.03 Ю 2 10 км 10/10 100 м
[St]
-6.1 -7.6 89 -11 -11 1014.7 1012.8
12 24.03 Ю 2 10 км 8/0
[Ci fib]
-3.6 -8.3 70 -7 -7 1013.7 1011.9
15 24.03 Ю 3 10 км 10/0
[Ac trans Ci fib]
-4.4 -8.2 75 -10 -10 1013.0 1011.2 -3.1
18 24.03 Ю 3 10 км 9/0
[Ac trans]
-2.6 -6.4 75 -8 -8 1012.2 1010.4

 

Местоположение метеостанции Надым (Ямало-Ненецкий АО, Россия): широта 65.47 долгота 72.67 высота над уровнем моря 19 м.

В архиве по умолчанию представлена погода в Надыме за последнюю неделю. Архивные данные за месяц целиком и за предыдущие месяцы, начиная с января 2011 года, Вы можете получить, выбрав интересующий диапазон дат из раскрывающегося списка и нажав кнопку "Ввод!".


*Определитесь, кто Вы:
робот инопланетянин человек

Внимание! Время в таблицах - всемирное. Для получения местного времени необходимо прибавить поправку, которая равна 5 ч.

Смотрите также архив погоды в соседних городах и на ближайших метеорологических станциях:

Погода в Пангодах (Ямало-Ненецкий АО, Россия) (93 км)
Погода в Лонг-Югане (Ямало-Ненецкий АО, Россия) (112 км)
Погода в Ныде (Ямало-Ненецкий АО, Россия) (130 км)
Погода в Полуе (Ямало-Ненецкий АО, Россия) (193 км)
Погода в Новом Уренгое (Ямало-Ненецкий АО, Россия) (200 км)
Погода в Новом Порте (Ямало-Ненецкий АО, Россия) (246 км)
Погода в Тарко-Сале (Ямало-Ненецкий АО, Россия) (248 км)
Погода в Юильске (Ханты-Мансийский АО, Россия) (248 км)
Погода в Белоярске (Ямало-Ненецкий АО, Россия) (257 км)
Погода в Уренгое (Ямало-Ненецкий АО, Россия) (267 км)

Пояснения к столбцам:

Ветер - указаны скорость ветра в м/с - средняя за 10 мин, порывы в срок и между сроками (в фигурных скобках) и направление, откуда дует ветер: С - северный, СВ - северо-восточный, В - восточный, ЮВ - юго-восточный, Ю - южный, ЮЗ - юго-западный, З - западный, СЗ - северо-западный.
Видимость - горизонтальная дальность видимости в метрах или километрах. При видимости от 1 до 10 км при отсутствии осадков обычно наблюдается дымка, при ухудшении видимости до 1 км и менее - туман. В сухую погоду видимость может ухудшаться дымом, пылью или мглою.
Явления - указаны атмосферные явления, наблюдавшиеся в срок или в последний час перед сроком; фигурными скобками обозначены явления, наблюдавшиеся между сроками (за 1-3 часа до срока); квадратными скобками обозначены град или гололедные отложения с указанием их диаметра в мм.
Облачность - указаны через наклонную черту общая и нижняя облачность в баллах и высота нижней границы облаков в метрах; квадратными скобками обозначены формы облаков: Ci - перистые, Cs - перисто-слоистые, Cc - перисто-кучевые, Ac - высококучевые, As - высокослоистые, Sc - слоисто-кучевые, Ns - слоисто-дождевые, Cu - кучевые, Cb - кучево-дождевые. Подробнее классификацию облаков см. в Атласе облаков (PDF).
T - Температура воздуха - температура, измеренная на высоте 2 м над землей.
Td - Температура точки росы - температура, при понижении до которой содержащийся в воздухе водяной пар достигнет насыщения.
f - Относительная влажность воздуха - влажноcть воздуха, измеренная на высоте 2 м над землей.
Te - Эффективная температура - температура, которую ощущает одетый по сезону человек в тени. Характеристика душности погоды. При расчете учитывается влияние влажности воздуха и скорости ветра на теплоощущения человека.
Tes - Эффективная температура на солнце - температура, которую ощущает человек, с поправкой на солнечный нагрев. Характеристика знойности погоды. Зависит от высоты солнца над горизонтом, облачности и скорости ветра. Ночью, в пасмурную погоду, а также при ветре 12 м/с и более поправка равна нулю.
P - Атмосферное давление - приведенное к уровню моря атмосферное давление.
Po - Атмосферное давление - измеренное на уровне метеостанции атмосферное давление.
Tmin - Минимальная температура - минимум температуры воздуха на высоте 2 м над землей.
Tmax - Максимальная температура - максимум температуры воздуха на высоте 2 м над землей.
R - Количество осадков - Количество выпавших осадков за период времени, мм. При наведении курсора мыши на число - период времени, за который выпало указанное количество осадков.
R24 - Количество осадков - Количество выпавших осадков за 24 часа, мм.
S - Снежный покров - Высота снежного покрова, см. При наведении курсора мыши на число - состояние снежного покрова и степень покрытия местности в баллах.